Weather History for Batman, Turkey

Change the Weather History Date:

Saturday, August 24, 2013

  Actual Average (LTCC) Record (LTCC)
Temperature  
Mean Temperature 80 °F -  
Max Temperature 98 °F 97 °F 105 °F (2010)
Min Temperature 62 °F 68 °F 64 °F (2013)
Cooling Degree Days 15    
Growing Degree Days 30 (Base 50)    
Moisture  
Dew Point 46 °F    
Average Humidity 34    
Maximum Humidity 68    
Minimum Humidity 10    
Precipitation  
Precipitation 0.00 in - - ()
Sea Level Pressure  
Sea Level Pressure 29.72 in    
Wind  
Wind Speed 5 mph ()    
Max Wind Speed 16 mph    
Max Gust Speed -    
Averages and records for this station are not official NWS values.
T = Trace of Precipitation, MM = Missing Value Source: Averaged Metar Reports

Daily Weather History Graph

Daily Weather History Graph

Search for Another Location

Airport:

Trip Planner

Search our weather history database for the weather conditions in past years. The results will help you decide how hot, cold, wet, or windy it might be!

Date:

Astronomy

Aug. 24, 2013 Rise Set
Actual Time 5:38 AM EEST 6:56 PM EEST
Civil Twilight 5:11 AM EEST 7:23 PM EEST
Nautical Twilight 4:38 AM EEST 7:56 PM EEST
Astronomical Twilight 4:03 AM EEST 8:30 PM EEST
Moon 8:43 PM EEST (8/24) 9:10 AM EEST (8/24)
Length of Visible Light 14h 12m
Length of Day
13h 18m
Waning Gibbous, 86% of the Moon is Illuminated
Aug 24
Waning Gibbous
Aug 28
Last Quarter
Sep 5
New
Sep 12
First Quarter
Sep 19
Full

Hourly Weather History & Observations

Time (EEST) Temp. Heat Index Dew Point Humidity Pressure Visibility Wind Dir Wind Speed Gust Speed Precip Events Conditions
12:20 AM 71.6 °F - 46.4 °F 41% 29.77 in - Variable 1.2 mph - N/A   Clear
12:50 AM 69.8 °F - 48.2 °F 46% 29.77 in - NNE 5.8 mph - N/A   Clear
1:20 AM 71.6 °F - 46.4 °F 41% 29.74 in - NE 3.5 mph - N/A   Clear
1:50 AM 71.6 °F - 44.6 °F 38% 29.74 in - Calm Calm - N/A   Clear
2:20 AM 69.8 °F - 48.2 °F 46% 29.74 in - Calm Calm - N/A   Clear
2:50 AM 69.8 °F - 46.4 °F 43% 29.74 in - Calm Calm - N/A   Clear
3:20 AM 64.4 °F - 50.0 °F 59% 29.74 in - North 4.6 mph - N/A   Clear
3:50 AM 64.4 °F - 50.0 °F 59% 29.74 in - NNE 6.9 mph - N/A   Clear
4:20 AM 64.4 °F - 53.6 °F 68% 29.74 in - North 6.9 mph - N/A   Clear
4:50 AM 64.4 °F - 51.8 °F 64% 29.74 in - NNE 9.2 mph - N/A   Clear
5:20 AM 64.4 °F - 50.0 °F 59% 29.74 in - North 6.9 mph - N/A   Clear
5:50 AM 62.6 °F - 51.8 °F 68% 29.74 in - NNE 5.8 mph - N/A   Clear
6:20 AM 66.2 °F - 51.8 °F 60% 29.77 in - NNE 6.9 mph - N/A   Clear
6:50 AM 68.0 °F - 50.0 °F 52% 29.77 in - NE 4.6 mph - N/A   Clear
7:20 AM 73.4 °F - 46.4 °F 38% 29.77 in - NNE 4.6 mph - N/A   Clear
7:50 AM 78.8 °F - 46.4 °F 32% 29.74 in - NNE 5.8 mph - N/A   Clear
8:20 AM 80.6 °F - 48.2 °F 32% 29.74 in - NW 4.6 mph - N/A   Clear
8:50 AM 84.2 °F - 46.4 °F 27% 29.74 in - NE 4.6 mph - N/A   Clear
9:20 AM 87.8 °F - 48.2 °F 25% 29.74 in - Variable 3.5 mph - N/A   Clear
9:50 AM 89.6 °F - 44.6 °F 21% 29.74 in - Variable 4.6 mph - N/A   Clear
10:20 AM 91.4 °F - 37.4 °F 15% 29.74 in - West 9.2 mph - N/A   Clear
10:50 AM 93.2 °F - 39.2 °F 15% 29.74 in - West 6.9 mph - N/A   Clear
11:20 AM 93.2 °F - 39.2 °F 15% 29.71 in - Variable 4.6 mph - N/A   Clear
11:50 AM 95.0 °F - 37.4 °F 13% 29.71 in - WSW 6.9 mph - N/A   Clear
12:20 PM 96.8 °F - 35.6 °F 12% 29.71 in - Variable 4.6 mph - N/A   Clear
12:50 PM 98.6 °F - 32.0 °F 10% 29.71 in - SSW 15.0 mph - N/A   Clear
1:20 PM 96.8 °F - 35.6 °F 12% 29.71 in - SW 16.1 mph - N/A   Clear
1:50 PM 96.8 °F - 33.8 °F 11% 29.71 in - SW 13.8 mph - N/A   Clear
2:20 PM 96.8 °F - 33.8 °F 11% 29.68 in - SW 13.8 mph - N/A   Clear
2:50 PM 96.8 °F - 33.8 °F 11% 29.68 in - SW 13.8 mph - N/A   Clear
3:20 PM 96.8 °F - 35.6 °F 12% 29.68 in - WSW 15.0 mph - N/A   Clear
3:50 PM 95.0 °F - 41.0 °F 15% 29.68 in - WSW 16.1 mph - N/A   Clear
4:20 PM 95.0 °F - 41.0 °F 15% 29.68 in - SW 12.7 mph - N/A   Clear
4:50 PM 95.0 °F - 41.0 °F 15% 29.68 in - WSW 15.0 mph - N/A   Clear
5:20 PM 93.2 °F - 41.0 °F 16% 29.68 in - SW 13.8 mph - N/A   Clear
5:50 PM 91.4 °F - 44.6 °F 20% 29.68 in - SW 11.5 mph - N/A   Clear
6:20 PM 89.6 °F - 46.4 °F 22% 29.68 in - SSW 10.4 mph - N/A   Clear
6:50 PM 87.8 °F - 48.2 °F 25% 29.68 in - SSW 9.2 mph - N/A   Clear
7:20 PM 84.2 °F - 50.0 °F 30% 29.71 in - SSW 9.2 mph - N/A   Clear
7:50 PM 82.4 °F - 51.8 °F 35% 29.71 in - SSW 8.1 mph - N/A   Clear
8:20 PM 80.6 °F - 51.8 °F 37% 29.71 in - SSW 3.5 mph - N/A   Clear
8:50 PM 80.6 °F 80.3 °F 53.6 °F 39% 29.74 in - West 1.2 mph - N/A   Clear
9:20 PM 78.8 °F - 50.0 °F 36% 29.74 in - Calm Calm - N/A   Clear
9:50 PM 77.0 °F - 51.8 °F 41% 29.71 in - Calm Calm - N/A   Clear
10:20 PM 77.0 °F - 51.8 °F 41% 29.71 in - Calm Calm - N/A   Clear
10:50 PM 71.6 °F - 55.4 °F 57% 29.71 in - NNE 5.8 mph - N/A   Clear
11:20 PM 71.6 °F - 55.4 °F 57% 29.71 in - NNE 8.1 mph - N/A   Clear
11:50 PM 71.6 °F - 55.4 °F 57% 29.71 in - NE 8.1 mph - N/A   Clear